QPF
0.00 0.00 0.00 0.00 0.00 0.00 0.00 0.00 0.00 0.00 0.00 0.00 0.00 0.00 0.00 0.00 0.00 0.00 0.00 0.00 0.00 0.00 0.00 0.00 0.00 0.00 0.00 0.00 0.00 0.00 0.00 0.00 0.00 0.00 0.00 0.00 0.00 0.00 0.00 0.00 0.00 0.00 0.00 0.00 0.00
0.00 0.00 0.00 0.00 0.00 0.00 0.00 0.00 0.00 0.00 0.00 0.00 0.00 0.00 0.00 0.00 0.00 0.00 0.00 0.00 0.00 0.00 0.00 0.00 0.00 0.00 0.00 0.00 0.00 0.00 0.00 0.00 0.00 0.00 0.00 0.00 0.00 0.00 0.00 0.00 0.00 0.00 0.00 0.00 0.00
0.00 0.00 0.00 0.00 0.00 0.00 0.00 0.00 0.00 0.00 0.00 0.00 0.00 0.00 0.00 0.00 0.00 0.00 0.00 0.00 0.00 0.00 0.00 0.00 0.00 0.00 0.00 0.00 0.00 0.00 0.00 0.00 0.00 0.00 0.00 0.00 0.00 0.00 0.00 0.00 0.00 0.00 0.00 0.00 0.02
0.00 0.00 0.00 0.00 0.00 0.00 0.00 0.00 0.00 0.00 0.00 0.00 0.00 0.00 0.00 0.00 0.00 0.00 0.00 0.00 0.00 0.00 0.00 0.00 0.00 0.00 0.00 0.00 0.00 0.00 0.00 0.00 0.00 0.00 0.00 0.00 0.00 0.00 0.00 0.00 0.00 0.00 0.00 0.00 0.00
0.00 0.00 0.00 0.00 0.00 0.00 0.00 0.00 0.00 0.00 0.00 0.00 0.00 0.00 0.00 0.00 0.00 0.00 0.00 0.00 0.00 0.00 0.00 0.00 0.00 0.00 0.00 0.00 0.00 0.00 0.00 0.00 0.00 0.00 0.00 0.00 0.00 0.00 0.00 0.00 0.00 0.00 0.00 0.00 0.00
0.00 0.00 0.00 0.00 0.00 0.00 0.00 0.00 0.00 0.00 0.00 0.00 0.00 0.00 0.00 0.00 0.00 0.00 0.00 0.00 0.00 0.00 0.00 0.00 0.00 0.00 0.00 0.00 0.00 0.00 0.00 0.00 0.00 0.00 0.00 0.00 0.00 0.00 0.00 0.00 0.00 0.00 0.00 0.00 0.00
0.00 0.00 0.00 0.00 0.00 0.00 0.00 0.00 0.00 0.00 0.00 0.00 0.00 0.00 0.00 0.00 0.00 0.00 0.00 0.00 0.00 0.00 0.00 0.00 0.00 0.00 0.00 0.00 0.00 0.00 0.00 0.00 0.00 0.00 0.00 0.00 0.00 0.00 0.00 0.00 0.00 0.00 0.00 0.00 0.00
0.00 0.00 0.00 0.00 0.00 0.00 0.00 0.00 0.00 0.00 0.00 0.00 0.00 0.00 0.00 0.00 0.00 0.00 0.00 0.00 0.00 0.00 0.00 0.00 0.00 0.00 0.00 0.00 0.00 0.00 0.00 0.00 0.00 0.00 0.00 0.00 0.00 0.00 0.00 0.00 0.00 0.00 0.00 0.00 0.00
0.00 0.00 0.00 0.00 0.00 0.00 0.00 0.00 0.00 0.00 0.00 0.00 0.00 0.00 0.00 0.00 0.00 0.00 0.00 0.00 0.00 0.00 0.00 0.00 0.00 0.00 0.00 0.00 0.00 0.00 0.00 0.00 0.00 0.00 0.00 0.00 0.00 0.00 0.00 0.00 0.00 0.00 0.00 0.00 0.00
0.00 0.00 0.00 0.00 0.00 0.00 0.00 0.00 0.00 0.00 0.00 0.00 0.00 0.00 0.00 0.00 0.00 0.00 0.00 0.00 0.00 0.00 0.00 0.00 0.00 0.00 0.00 0.00 0.00 0.00 0.00 0.00 0.00 0.00 0.00 0.00 0.00 0.00 0.00 0.00 0.00 0.00 0.00 0.00 0.00
0.00 0.00 0.00 0.00 0.00 0.00 0.00 0.00 0.00 0.00 0.00 0.00 0.00 0.00 0.00 0.00 0.00 0.00 0.00 0.00 0.00 0.00 0.00 0.00 0.00 0.00 0.00 0.00 0.00 0.00 0.00 0.00 0.00 0.00 0.00 0.00 0.00 0.00 0.00 0.00 0.00 0.00 0.00 0.00 0.00
0.00 0.00 0.00 0.00 0.00 0.00 0.00 0.00 0.00 0.00 0.00 0.00 0.00 0.00 0.00 0.00 0.00 0.00 0.00 0.00 0.00 0.00 0.00 0.00 0.00 0.00 0.00 0.00 0.00 0.00 0.00 0.00 0.00 0.00 0.00 0.00 0.00 0.00 0.00 0.00 0.00 0.00 0.00 0.00 0.00
0.00 0.00 0.00 0.00 0.00 0.00 0.00 0.00 0.00 0.00 0.00 0.00 0.00 0.00 0.00 0.00 0.00 0.00 0.00 0.00 0.00 0.00 0.00 0.00 0.00 0.00 0.00 0.00 0.00 0.00 0.00 0.00 0.00 0.00 0.00 0.00 0.00 0.00 0.00 0.00 0.00 0.00 0.00 0.00 0.00
0.00 0.00 0.00 0.00 0.00 0.00 0.00 0.00 0.00 0.00 0.00 0.00 0.00 0.00 0.00 0.00 0.00 0.00 0.00 0.00 0.00 0.00 0.00 0.00 0.00 0.00 0.00 0.00 0.00 0.00 0.00 0.00 0.00 0.00 0.00 0.00 0.00 0.00 0.00 0.00 0.00 0.00 0.00 0.00 0.00
0.00 0.00 0.00 0.00 0.00 0.00 0.00 0.00 0.00 0.00 0.00 0.00 0.00 0.00 0.00 0.00 0.00 0.00 0.00 0.00 0.00 0.00 0.00 0.00 0.00 0.00 0.00 0.00 0.00 0.00 0.00 0.00 0.00 0.00 0.00 0.00 0.00 0.00 0.00 0.00 0.00 0.00 0.00 0.00 0.00
0.00 0.00 0.00 0.00 0.00 0.00 0.00 0.00 0.00 0.00 0.00 0.00 0.00 0.00 0.00 0.00 0.00 0.00 0.00 0.00 0.00 0.00 0.00 0.00 0.00 0.00 0.00 0.00 0.00 0.00 0.00 0.00 0.00 0.00 0.00 0.00 0.00 0.00 0.00 0.00 0.00 0.00 0.00 0.00 0.00
0.00 0.00 0.00 0.00 0.00 0.00 0.00 0.00 0.00 0.00 0.00 0.00 0.00 0.00 0.00 0.00 0.00 0.00 0.00 0.00 0.00 0.00 0.00 0.00 0.00 0.00 0.00 0.00 0.00 0.00 0.00 0.00 0.00 0.00 0.00 0.00 0.00 0.00 0.00 0.00 0.00 0.00 0.00 0.00 0.00
0.00 0.00 0.00 0.00 0.00 0.00 0.00 0.00 0.00 0.00 0.00 0.00 0.00 0.00 0.00 0.00 0.00 0.00 0.00 0.00 0.00 0.00 0.00 0.00 0.00 0.00 0.00 0.00 0.00 0.00 0.00 0.00 0.00 0.00 0.00 0.00 0.00 0.00 0.00 0.00 0.00 0.00 0.00 0.00 0.00
0.00 0.00 0.00 0.00 0.00 0.00 0.00 0.00 0.00 0.00 0.00 0.00 0.00 0.00 0.00 0.00 0.00 0.00 0.00 0.00 0.00 0.00 0.00 0.00 0.00 0.00 0.00 0.00 0.00 0.00 0.00 0.00 0.00 0.00 0.00 0.00 0.00 0.00 0.00 0.00 0.00 0.00 0.00 0.00 0.00
0.00 0.00 0.00 0.00 0.00 0.00 0.00 0.00 0.00 0.00 0.00 0.00 0.00 0.00 0.00 0.00 0.00 0.00 0.00 0.00 0.00 0.00 0.00 0.00 0.00 0.00 0.00 0.00 0.00 0.00 0.00 0.00 0.00 0.00 0.00 0.00 0.00 0.00 0.00 0.00 0.00 0.00 0.00 0.00 0.00
0.00 0.00 0.00 0.00 0.00 0.00 0.00 0.00 0.00 0.00 0.00 0.00 0.00 0.00 0.00 0.00 0.00 0.00 0.00 0.00 0.00 0.00 0.00 0.00 0.00 0.00 0.00 0.00 0.00 0.00 0.00 0.00 0.00 0.00 0.00 0.00 0.00 0.00 0.00 0.00 0.00 0.00 0.00 0.00 0.00
0.00 0.00 0.00 0.00 0.00 0.00 0.00 0.00 0.00 0.00 0.00 0.00 0.00 0.00 0.00 0.00 0.00 0.00 0.00 0.00 0.00 0.00 0.00 0.00 0.00 0.00 0.00 0.00 0.00 0.00 0.00 0.00 0.01 0.00 0.00 0.00 0.00 0.01 0.01 0.00 0.00 0.00 0.00 0.00 0.00
0.00 0.00 0.00 0.00 0.00 0.00 0.00 0.00 0.00 0.00 0.00 0.00 0.00 0.00 0.00 0.00 0.00 0.00 0.00 0.00 0.00 0.00 0.00 0.00 0.00 0.00 0.00 0.00 0.00 0.00 0.00 0.00 0.00 0.01 0.00 0.00 0.00 0.00 0.00 0.00 0.00 0.00 0.00 0.00 0.00
0.00 0.00 0.00 0.00 0.00 0.00 0.00 0.00 0.00 0.00 0.00 0.00 0.00 0.00 0.00 0.00 0.00 0.00 0.00 0.00 0.00 0.00 0.00 0.00 0.00 0.00 0.00 0.00 0.00 0.00 0.00 0.00 0.00 0.00 0.00 0.00 0.00 0.00 0.00 0.00 0.00 0.00 0.00 0.00 0.00
0.00 0.00 0.00 0.00 0.00 0.00 0.00 0.00 0.00 0.00 0.00 0.00 0.00 0.00 0.00 0.00 0.00 0.00 0.00 0.00 0.00 0.00 0.00 0.00 0.00 0.00 0.00 0.00 0.00 0.00 0.00 0.00 0.00 0.00 0.00 0.00 0.00 0.00 0.00 0.00 0.00 0.00 0.00 0.00 0.00
0.00 0.00 0.00 0.00 0.00 0.00 0.00 0.00 0.00 0.00 0.00 0.00 0.00 0.00 0.00 0.00 0.00 0.00 0.00 0.00 0.00 0.00 0.00 0.00 0.00 0.00 0.00 0.00 0.00 0.00 0.00 0.00 0.00 0.00 0.00 0.00 0.00 0.00 0.00 0.00 0.00 0.00 0.00 0.00 0.00
0.00 0.00 0.00 0.00 0.00 0.00 0.00 0.00 0.00 0.00 0.00 0.00 0.00 0.00 0.00 0.00 0.00 0.00 0.00 0.00 0.00 0.00 0.00 0.00 0.00 0.00 0.00 0.00 0.00 0.00 0.00 0.00 0.00 0.00 0.00 0.00 0.00 0.00 0.00 0.00 0.00 0.00 0.00 0.00 0.00
MSLP
1021.93 1021.66 1021.37 1021.08 1020.70 1020.42 1020.16 1019.81 1019.44 1019.15 1018.92 1018.63 1018.35 1018.06 1017.83 1017.65 1016.95 1016.49 1016.48 1016.12 1015.84 1015.55 1015.42 1015.35 1015.29 1014.97 1015.01 1015.10 1014.72 1014.97 1015.79 1015.50 1014.93 1014.22 1013.17 1011.97 1011.46 1010.60 1010.16 1010.36 1010.30 1010.37 1010.53 1010.85 1010.78
1021.95 1021.79 1021.39 1021.05 1020.74 1020.45 1020.09 1019.72 1019.27 1018.95 1018.71 1018.50 1018.04 1018.08 1017.65 1017.41 1016.68 1016.46 1016.15 1015.79 1015.81 1015.69 1015.77 1015.53 1015.17 1015.15 1015.33 1014.98 1014.85 1014.93 1015.14 1014.82 1014.19 1013.58 1013.40 1012.96 1012.37 1011.65 1011.11 1010.87 1010.76 1010.67 1010.91 1010.89 1010.91
1021.97 1021.78 1021.51 1020.94 1020.59 1020.36 1020.02 1019.56 1019.11 1018.66 1018.30 1018.11 1017.96 1017.81 1017.53 1017.27 1016.68 1016.41 1015.89 1015.54 1015.77 1015.84 1015.99 1015.57 1015.14 1014.97 1015.35 1015.01 1014.74 1014.61 1014.59 1014.42 1013.81 1013.51 1013.44 1013.17 1012.76 1012.23 1011.92 1011.60 1011.35 1011.37 1011.19 1011.60 1011.81
1022.00 1021.70 1021.31 1021.06 1020.61 1020.23 1019.87 1019.34 1018.90 1018.42 1018.16 1017.90 1017.65 1017.69 1017.43 1017.14 1017.03 1016.25 1015.94 1015.48 1015.76 1015.99 1015.99 1015.74 1015.40 1015.36 1015.37 1015.15 1014.39 1014.77 1014.46 1014.37 1013.89 1013.27 1013.43 1013.42 1012.71 1012.48 1012.23 1012.09 1011.55 1011.30 1011.32 1011.20 1011.83
1021.90 1021.77 1021.35 1021.07 1020.57 1020.17 1019.70 1019.06 1018.61 1018.27 1017.96 1017.76 1017.54 1017.54 1017.37 1016.92 1016.48 1016.05 1015.84 1015.67 1015.63 1015.91 1015.93 1016.06 1016.00 1015.70 1015.66 1015.28 1014.68 1014.49 1014.23 1013.99 1013.63 1013.35 1013.11 1013.12 1012.99 1012.77 1011.99 1011.85 1011.31 1011.18 1011.32 1011.53 1011.55
1021.94 1021.67 1021.14 1020.80 1020.40 1020.03 1019.53 1018.90 1018.46 1017.76 1017.65 1017.39 1017.48 1017.54 1017.34 1016.63 1015.87 1015.96 1015.84 1015.72 1015.84 1016.10 1016.10 1016.06 1016.48 1016.16 1016.03 1015.71 1015.41 1014.83 1014.64 1014.31 1013.86 1013.31 1013.24 1013.28 1012.82 1012.88 1011.97 1011.57 1011.62 1011.38 1011.16 1011.29 1011.43
1021.77 1021.57 1021.07 1020.69 1020.10 1019.68 1019.15 1018.72 1018.16 1017.45 1017.13 1017.19 1017.39 1017.48 1016.86 1016.29 1015.75 1015.84 1015.73 1015.78 1015.93 1016.24 1016.26 1016.18 1016.40 1016.60 1016.54 1016.23 1015.79 1015.44 1015.20 1014.53 1013.59 1012.76 1012.99 1012.68 1012.80 1012.45 1011.53 1011.87 1011.86 1011.52 1011.22 1011.00 1010.85
1021.60 1021.36 1020.99 1020.44 1019.91 1019.46 1018.90 1018.38 1017.87 1017.51 1017.16 1017.14 1017.34 1017.59 1016.61 1015.73 1015.69 1015.77 1015.73 1015.75 1015.96 1016.21 1016.38 1016.34 1016.46 1016.87 1016.92 1016.64 1016.21 1015.88 1015.60 1014.82 1013.20 1012.65 1012.45 1012.75 1012.63 1011.86 1011.59 1011.95 1011.77 1011.08 1010.98 1010.87 1010.51
1021.52 1021.20 1020.82 1020.26 1019.64 1019.23 1018.69 1018.15 1017.79 1017.57 1017.58 1017.30 1017.37 1017.35 1016.67 1015.76 1015.75 1015.76 1015.81 1015.74 1015.93 1016.31 1016.37 1016.32 1016.68 1017.02 1017.10 1017.34 1017.21 1016.44 1016.11 1015.26 1014.10 1012.78 1012.61 1012.87 1012.59 1011.73 1011.44 1011.69 1011.60 1011.20 1010.93 1010.85 1010.47
1021.40 1021.05 1020.68 1020.15 1019.52 1018.94 1018.35 1017.94 1017.69 1017.71 1017.50 1017.31 1016.97 1017.33 1016.56 1016.12 1015.83 1015.88 1015.87 1015.92 1015.95 1016.37 1016.72 1016.81 1017.09 1017.46 1017.76 1017.94 1017.76 1017.10 1016.68 1015.80 1015.15 1013.93 1013.58 1013.48 1013.21 1012.15 1011.64 1011.58 1011.33 1010.96 1010.81 1010.71 1010.57
1021.04 1020.89 1020.50 1019.94 1019.39 1018.78 1018.40 1017.99 1018.53 1018.46 1017.62 1017.15 1017.14 1016.81 1016.52 1016.25 1015.89 1015.89 1015.78 1016.03 1016.09 1016.59 1017.01 1017.17 1017.68 1017.85 1017.52 1017.51 1017.15 1017.18 1016.94 1016.38 1015.51 1014.76 1014.37 1013.73 1013.33 1012.47 1011.42 1011.24 1011.05 1010.79 1010.84 1010.88 1010.51
1020.91 1020.70 1020.31 1019.76 1019.33 1018.80 1018.48 1019.27 1020.30 1020.52 1018.98 1017.43 1017.15 1016.83 1016.66 1016.47 1016.25 1016.03 1015.94 1016.35 1016.47 1016.87 1017.06 1017.63 1017.43 1016.70 1016.88 1016.85 1016.93 1016.97 1017.03 1016.69 1015.87 1015.06 1015.14 1014.25 1013.36 1012.40 1011.21 1010.91 1010.52 1010.36 1011.12 1011.20 1011.04
1020.87 1020.57 1020.13 1019.62 1019.23 1019.49 1019.98 1020.42 1020.48 1020.52 1019.71 1017.99 1017.11 1016.80 1016.71 1016.69 1016.23 1016.28 1016.24 1016.18 1016.57 1016.88 1016.98 1017.27 1016.52 1016.17 1016.39 1016.44 1016.68 1016.73 1016.95 1016.81 1016.64 1016.04 1015.53 1015.09 1013.88 1012.63 1011.35 1011.49 1010.90 1011.49 1012.12 1012.38 1012.41
1020.93 1020.50 1020.01 1019.44 1019.57 1019.84 1020.52 1020.63 1020.46 1020.57 1020.12 1018.63 1017.41 1016.94 1016.78 1016.76 1016.61 1016.31 1016.30 1016.59 1016.53 1016.68 1016.67 1016.60 1016.14 1016.08 1016.21 1016.28 1016.45 1016.72 1016.53 1016.77 1017.05 1017.21 1017.33 1016.58 1016.25 1014.18 1012.53 1013.04 1012.66 1012.95 1013.02 1013.16 1012.93
1020.64 1020.46 1020.00 1019.52 1019.93 1020.12 1020.84 1020.41 1020.29 1020.59 1020.41 1019.15 1017.68 1016.86 1016.84 1017.26 1017.16 1016.77 1016.57 1016.72 1016.97 1017.01 1017.14 1016.43 1016.08 1016.02 1016.09 1016.01 1015.95 1016.40 1016.51 1017.09 1017.70 1018.26 1018.35 1017.51 1017.27 1014.52 1013.80 1013.92 1014.01 1014.07 1013.98 1013.97 1013.99
1020.66 1020.32 1020.18 1020.20 1020.34 1020.64 1020.34 1020.50 1020.41 1021.38 1021.01 1019.90 1018.66 1018.14 1017.89 1017.59 1017.43 1017.27 1017.23 1017.26 1017.23 1017.49 1017.41 1017.02 1016.32 1016.13 1015.86 1015.93 1016.10 1016.45 1017.07 1017.76 1018.36 1019.36 1019.64 1017.87 1017.25 1015.32 1014.14 1014.40 1014.79 1014.96 1014.99 1015.08 1014.97
1020.52 1020.28 1020.21 1020.32 1020.67 1020.46 1020.36 1020.79 1022.13 1022.37 1021.97 1021.42 1020.62 1019.96 1019.54 1019.15 1018.45 1018.20 1018.22 1018.55 1018.77 1018.81 1018.59 1017.65 1016.56 1016.22 1016.01 1016.28 1016.37 1017.08 1018.34 1019.83 1020.49 1020.98 1020.19 1018.19 1017.45 1015.06 1014.91 1015.09 1015.47 1015.83 1016.11 1016.15 1015.99
1020.23 1020.15 1020.25 1020.14 1020.47 1020.39 1020.73 1021.58 1022.99 1023.30 1023.13 1022.22 1021.58 1021.14 1021.02 1020.61 1019.89 1019.50 1019.45 1020.07 1020.18 1020.11 1020.04 1019.14 1017.89 1016.91 1016.56 1016.52 1016.89 1017.66 1018.92 1020.55 1021.58 1021.86 1020.97 1018.61 1017.07 1015.61 1015.49 1015.83 1016.21 1016.62 1017.00 1017.00 1016.79
1020.01 1020.31 1020.34 1020.22 1020.06 1020.44 1021.40 1022.57 1022.96 1022.98 1022.83 1022.59 1022.45 1022.32 1022.40 1021.95 1021.72 1020.98 1020.93 1021.20 1021.30 1021.23 1021.25 1020.59 1019.18 1017.88 1017.17 1017.06 1017.45 1018.09 1019.00 1019.59 1021.18 1022.58 1021.81 1019.66 1017.45 1016.79 1016.54 1016.95 1017.26 1017.40 1017.44 1017.73 1017.80
1020.61 1020.58 1020.26 1020.16 1019.98 1020.58 1021.79 1023.25 1023.38 1022.70 1022.60 1022.40 1022.79 1023.47 1023.62 1023.45 1022.97 1022.14 1021.80 1021.86 1021.91 1021.83 1021.79 1021.67 1020.96 1019.25 1018.43 1018.02 1017.95 1018.34 1019.28 1020.40 1021.71 1022.75 1022.26 1019.82 1018.14 1017.13 1017.61 1018.18 1018.30 1018.13 1018.40 1018.73 1018.75
1020.82 1020.77 1020.27 1019.87 1020.23 1021.19 1022.94 1023.66 1023.15 1022.77 1022.62 1022.74 1023.09 1023.70 1024.14 1024.38 1024.14 1023.48 1022.76 1022.63 1022.28 1022.40 1022.34 1022.51 1022.41 1021.24 1020.10 1019.52 1019.46 1019.65 1020.21 1021.34 1022.13 1022.58 1022.46 1021.09 1019.06 1018.38 1018.60 1018.92 1019.06 1019.26 1019.33 1019.49 1019.49
1020.55 1021.27 1019.98 1019.84 1021.49 1023.10 1024.06 1023.61 1023.09 1022.73 1022.50 1022.57 1022.99 1023.68 1024.48 1024.96 1025.08 1024.45 1023.67 1022.96 1022.83 1022.95 1023.47 1023.77 1023.80 1023.43 1022.29 1020.80 1020.84 1020.80 1021.61 1022.43 1023.51 1023.88 1023.49 1022.40 1019.91 1018.97 1018.82 1019.21 1019.19 1019.66 1020.03 1020.13 1020.03
1021.27 1021.14 1020.21 1020.21 1022.19 1023.98 1024.11 1023.78 1023.25 1022.90 1022.66 1022.79 1023.11 1023.60 1024.53 1025.30 1025.78 1025.19 1024.34 1023.91 1023.62 1023.86 1024.41 1024.80 1025.03 1025.25 1023.78 1022.96 1022.57 1022.69 1022.95 1023.92 1024.77 1025.23 1024.76 1023.77 1020.42 1018.99 1018.56 1019.45 1020.09 1020.19 1020.37 1020.18 1020.05
1021.64 1022.21 1022.13 1022.02 1022.59 1023.44 1024.44 1023.92 1023.63 1023.09 1022.97 1022.99 1023.37 1023.68 1024.79 1025.57 1025.82 1025.77 1025.07 1024.59 1024.44 1024.53 1024.95 1025.50 1026.18 1026.28 1025.70 1025.08 1024.69 1024.23 1023.97 1024.49 1025.35 1026.53 1025.45 1023.48 1021.57 1020.41 1019.07 1019.22 1019.70 1020.51 1020.59 1020.62 1020.65
1021.71 1023.06 1023.02 1023.56 1023.76 1023.84 1023.91 1023.94 1023.69 1023.53 1023.51 1023.40 1023.66 1024.06 1024.99 1026.11 1026.25 1026.34 1025.90 1025.44 1025.13 1025.05 1025.47 1026.33 1026.91 1026.96 1026.40 1025.99 1025.45 1024.58 1024.07 1024.48 1024.89 1025.44 1025.55 1022.49 1022.89 1021.01 1021.46 1021.01 1020.08 1019.90 1020.13 1020.10 1020.02
1021.96 1022.71 1023.30 1023.73 1023.60 1023.95 1024.07 1024.22 1023.72 1023.62 1023.68 1023.68 1023.86 1024.05 1024.71 1025.46 1025.73 1026.17 1026.16 1026.28 1025.80 1025.76 1026.08 1026.59 1026.95 1027.10 1026.83 1026.35 1025.57 1024.54 1023.73 1023.78 1024.03 1024.08 1023.94 1023.06 1021.33 1021.23 1020.94 1020.83 1020.69 1020.56 1020.19 1020.23 1020.19
1021.65 1021.80 1022.21 1023.82 1023.92 1023.93 1023.95 1023.74 1023.48 1023.41 1023.57 1023.48 1023.82 1024.11 1024.14 1024.38 1024.87 1025.18 1025.42 1025.69 1025.80 1026.04 1026.51 1026.72 1027.17 1027.67 1026.69 1026.21 1025.63 1023.92 1022.32 1022.31 1022.29 1022.40 1022.27 1021.82 1020.05 1020.76 1021.00 1020.79 1020.54 1020.43 1020.19 1020.24 1020.30
Thickness
5589 5589 5589 5589 5590 5590 5588 5588 5590 5590 5589 5590 5590 5590 5589 5587 5589 5590 5584 5585 5582 5580 5578 5577 5578 5583 5584 5582 5589 5589 5570 5575 5587 5594 5608 5626 5626 5644 5654 5648 5654 5657 5659 5662 5669
5582 5582 5584 5584 5583 5582 5582 5582 5584 5585 5585 5584 5586 5583 5584 5582 5585 5582 5581 5580 5575 5571 5567 5567 5570 5572 5568 5574 5577 5573 5565 5578 5597 5602 5598 5606 5611 5619 5634 5636 5641 5647 5649 5658 5661
5577 5577 5576 5579 5579 5577 5576 5577 5579 5581 5582 5581 5580 5579 5579 5577 5581 5578 5578 5576 5568 5563 5558 5560 5565 5568 5561 5567 5570 5573 5568 5579 5590 5594 5595 5598 5604 5615 5618 5621 5631 5632 5639 5640 5643
5570 5571 5571 5570 5571 5571 5570 5572 5573 5575 5575 5576 5576 5574 5573 5573 5574 5573 5571 5571 5563 5556 5553 5553 5557 5556 5554 5555 5568 5559 5571 5574 5581 5589 5586 5587 5602 5602 5610 5615 5625 5631 5636 5638 5635
5565 5563 5564 5563 5564 5564 5564 5567 5569 5569 5570 5570 5570 5568 5568 5569 5569 5569 5568 5565 5561 5554 5550 5545 5544 5547 5544 5550 5556 5557 5565 5572 5577 5580 5582 5585 5588 5595 5603 5611 5622 5625 5627 5627 5629
5557 5557 5559 5558 5558 5557 5558 5561 5562 5567 5565 5566 5563 5561 5560 5567 5568 5564 5562 5560 5556 5549 5545 5542 5535 5538 5538 5540 5543 5552 5554 5559 5567 5574 5575 5573 5582 5588 5604 5609 5608 5615 5619 5619 5621
5550 5548 5550 5550 5553 5553 5555 5555 5557 5561 5564 5561 5557 5555 5560 5563 5563 5560 5558 5555 5550 5544 5540 5538 5533 5528 5529 5531 5538 5542 5541 5549 5560 5570 5568 5577 5574 5581 5596 5595 5598 5607 5610 5615 5618
5543 5541 5542 5544 5546 5547 5549 5551 5552 5553 5555 5554 5551 5548 5553 5560 5559 5556 5554 5551 5547 5542 5538 5535 5531 5524 5523 5527 5530 5533 5535 5534 5558 5568 5569 5568 5562 5582 5588 5589 5591 5602 5603 5607 5613
5535 5535 5535 5537 5540 5541 5542 5545 5546 5546 5544 5546 5544 5543 5547 5554 5552 5551 5548 5547 5543 5537 5535 5535 5529 5521 5520 5512 5507 5521 5518 5530 5542 5560 5565 5559 5559 5580 5584 5583 5586 5593 5596 5599 5604
5527 5527 5528 5529 5532 5534 5536 5538 5539 5537 5537 5538 5542 5535 5544 5544 5546 5544 5543 5540 5538 5532 5528 5526 5518 5507 5500 5497 5499 5518 5517 5525 5527 5544 5544 5545 5546 5570 5576 5577 5580 5589 5590 5593 5595
5522 5520 5520 5522 5525 5527 5529 5530 5526 5526 5532 5536 5533 5536 5537 5539 5541 5538 5538 5534 5534 5527 5517 5519 5504 5495 5504 5505 5515 5513 5511 5510 5523 5533 5532 5540 5541 5555 5573 5571 5574 5581 5580 5581 5586
5514 5512 5513 5515 5517 5519 5521 5512 5501 5499 5518 5526 5526 5527 5529 5530 5531 5530 5530 5524 5523 5511 5518 5509 5498 5516 5520 5521 5518 5515 5506 5502 5519 5529 5525 5533 5544 5554 5567 5569 5571 5576 5573 5573 5577
5504 5504 5506 5508 5509 5506 5500 5496 5495 5494 5501 5516 5521 5522 5520 5520 5525 5518 5521 5521 5516 5511 5508 5497 5516 5524 5521 5517 5512 5511 5504 5503 5506 5516 5520 5521 5520 5546 5559 5555 5559 5555 5553 5555 5557
5494 5495 5498 5502 5500 5496 5488 5488 5487 5485 5479 5503 5508 5509 5511 5512 5510 5515 5513 5510 5512 5508 5510 5505 5516 5514 5513 5510 5508 5496 5512 5511 5509 5496 5482 5504 5467 5520 5539 5531 5538 5538 5538 5540 5546
5488 5488 5491 5493 5489 5485 5480 5481 5480 5475 5433 5493 5498 5503 5504 5497 5498 5500 5502 5500 5496 5499 5496 5499 5507 5506 5504 5502 5507 5498 5508 5505 5502 5487 5478 5495 5452 5511 5527 5518 5518 5520 5523 5524 5527
5479 5481 5481 5480 5478 5474 5475 5471 5470 5438 5427 5463 5482 5477 5484 5491 5491 5487 5487 5487 5489 5487 5488 5484 5498 5497 5492 5496 5498 5497 5496 5490 5487 5470 5402 5479 5477 5492 5520 5514 5507 5505 5506 5505 5510
5470 5472 5472 5470 5465 5467 5466 5462 5430 5411 5446 5433 5447 5456 5458 5461 5470 5476 5474 5456 5456 5445 5457 5473 5485 5489 5489 5482 5484 5485 5455 5383 5402 5398 5420 5479 5475 5494 5498 5499 5496 5491 5488 5489 5492
5462 5463 5462 5461 5458 5458 5454 5435 5412 5385 5392 5439 5444 5443 5443 5442 5456 5455 5456 5435 5435 5439 5433 5434 5446 5476 5478 5477 5465 5461 5445 5393 5408 5404 5436 5470 5460 5496 5487 5478 5479 5477 5474 5475 5477
5454 5453 5451 5450 5450 5447 5436 5386 5404 5408 5418 5426 5426 5405 5406 5429 5425 5433 5427 5418 5419 5419 5420 5411 5443 5453 5467 5464 5457 5452 5431 5451 5395 5370 5386 5444 5479 5477 5470 5457 5457 5459 5462 5458 5458
5437 5436 5440 5439 5439 5434 5406 5416 5395 5424 5421 5422 5406 5387 5364 5372 5411 5419 5416 5413 5408 5413 5409 5410 5394 5433 5444 5447 5445 5442 5440 5410 5382 5372 5363 5426 5456 5450 5439 5432 5433 5441 5441 5438 5442
5423 5421 5426 5429 5426 5412 5384 5369 5404 5411 5407 5405 5385 5369 5383 5359 5385 5383 5398 5396 5399 5395 5398 5393 5388 5403 5419 5421 5416 5398 5384 5388 5399 5396 5375 5377 5416 5431 5419 5414 5413 5418 5422 5422 5424
5413 5393 5418 5418 5387 5363 5356 5387 5400 5395 5396 5393 5391 5386 5367 5355 5352 5372 5377 5381 5384 5382 5363 5369 5362 5350 5381 5393 5396 5394 5385 5377 5372 5367 5360 5367 5396 5414 5409 5407 5410 5408 5404 5404 5408
5387 5390 5404 5404 5364 5343 5357 5383 5384 5381 5380 5379 5377 5377 5363 5338 5327 5342 5363 5363 5362 5360 5342 5347 5318 5289 5341 5359 5358 5357 5365 5353 5335 5335 5333 5330 5388 5405 5407 5393 5391 5390 5390 5391 5398
5377 5368 5370 5376 5373 5364 5340 5354 5358 5368 5366 5364 5362 5362 5345 5326 5336 5319 5344 5347 5345 5346 5345 5335 5312 5298 5315 5333 5322 5330 5339 5335 5302 5255 5274 5333 5332 5372 5380 5375 5379 5367 5372 5374 5377
5361 5345 5352 5334 5343 5354 5358 5349 5353 5334 5349 5349 5346 5343 5328 5299 5301 5295 5305 5322 5329 5332 5322 5308 5277 5281 5293 5303 5304 5315 5320 5316 5298 5264 5277 5344 5300 5350 5327 5335 5345 5354 5359 5363 5370
5346 5340 5336 5325 5349 5346 5342 5327 5335 5334 5331 5336 5316 5332 5314 5295 5298 5276 5290 5288 5305 5301 5298 5288 5270 5284 5257 5289 5294 5294 5309 5309 5308 5295 5286 5306 5316 5333 5333 5327 5331 5329 5338 5343 5345
5345 5346 5342 5337 5333 5321 5322 5323 5332 5331 5328 5328 5313 5305 5313 5308 5300 5303 5303 5302 5295 5283 5271 5263 5248 5216 5254 5277 5259 5241 5293 5304 5299 5273 5275 5278 5315 5300 5286 5301 5295 5309 5319 5321 5329